Details for QantasLink at YBBN




Go Back


Latest METAR
Local Time

YBBN 220930Z 08005KT 9999 FEW038 19/13 Q1025 NOSIG
22/09/2018, 19:53:35

Description
Results
QantasLink Logo
Number of Pilots based at YBBN
0 Pilots Based here
Number of QantasLink Flights Departed from YBBN
1 Flights Departed
Number of QantasLink Flights Arrived at YBBN
0 Flights Arrived
Number of QantasLink Schedules Departing from YBBN
34 Schedules
Number of QantasLink Schedules Arriving at YBBN
36 Schedules
Number of QantasLink Schedules Departing from YBBN availible today
9 Schedules Today
Number of QantasLink Schedules Arriving at YBBN availible today
10 Schedules Today
Average Landing Rate at YBBN
-196 fpm
QantasLink Average Landing Rate at YBBN
0 fpm
Total Fuel Purchased at YBBN by QantasLink
4,866.59 kgs / 10,728.88 lbs

Pilots Based at YBBN


Pilot ID
Pilot Name
Pilot Rank
No. of Flights
No. of Flying Hours
There are no pilots assigned to this hub!   Will you be the first?
Content